Hourly Data Report for January 03, 2018

All times are specified in Local Standard Time (LST). Add 1 hour to adjust for Daylight Saving Time where and when it is observed.

BARRIE-ORO
ONTARIO

44°29'00.000" N
79°33'00.000" W
289.00 m
6117700
71314
XBI

Download Data

Hourly Data (January 2018)
Hourly Data Report for January 3, 2018
Temp Definition
°C
Dew Point Temp Definition
°C
Rel Hum Definition
%
Wind Dir Definition
10's deg

Wind Spd Definition
km/h
Visibility Definition
km
Stn Press Definition
kPa
Hmdx Definition


Wind Chill Definition


Weather Definition


TIME
00:00 -11.3 -14.0 80 21 12   98.24   -17 LegendNANA
01:00 -11.7 -14.8 77 23 16   98.20   -19 LegendNANA
02:00 -12.8 -15.6 79 20 13   98.19   -20 LegendNANA
03:00 -13.4 -16.7 76 20 14   98.20   -21 LegendNANA
04:00 -13.9 -17.7 73 22 14   98.19   -21 LegendNANA
05:00 -14.0 -18.2 71 20 11   98.14   -20 LegendNANA
06:00 -13.9 -18.3 69 20 11   98.09   -20 LegendNANA
07:00 -13.8 -18.4 68 21 12   98.10   -21 LegendNANA
08:00 -13.9 -18.8 66 20 12   98.09   -21 LegendNANA
09:00 -13.7 -18.8 65 20 11   98.09   -20 LegendNANA
10:00 -12.9 -17.7 67 21 10   98.06   -19 LegendNANA
11:00 -11.2 -16.5 65 21 13   98.00   -18 LegendNANA
12:00 -10.6 -16.0 65 18 15   97.89   -17 LegendNANA
13:00 -9.4 -16.4 57 21 15   97.80   -16 LegendNANA
14:00 -8.9 -15.0 61 21 16   97.70   -16 LegendNANA
15:00 -8.9 -13.2 71 22 15   97.68   -15 LegendNANA
16:00 -9.0 -12.2 77 22 12   97.70   -15 LegendNANA
17:00 -9.1 -12.8 75 22 12   97.72   -15 LegendNANA
18:00 -9.6 -13.3 74 22 14   97.75   -16 LegendNANA
19:00 -9.8 -13.0 77 22 13   97.81   -16 LegendNANA
20:00 -10.1 -12.5 82 20 12   97.81   -16 LegendNANA
21:00 -10.5 -12.8 83 21 10   97.80   -16 LegendNANA
22:00 -10.5 -12.8 83 21 9   97.75   -15 LegendNANA
23:00 -10.5 -12.9 83 23 11   97.69   -16 LegendNANA

Notes on Data Quality.

Legend

  • E = Estimated
  • M = Missing
  • NA = Not Available
  • ‡ = Partner data that is not subject to review by the National Climate Archives
Date modified: